WA2GTM Weather Reports


time (UTC)temp
C
wind
direction
speed
KPH
gust
KPH
rain 1hr
cm
rain 24hr
cm
rain mn
cm
humidity
%
barometer
mb
20260504174053 25 292 24.1 45.1 0.00 0.00 0.00 31 1000.8
20260504173555 25 299 16.1 29.0 0.00 0.00 0.00 31 1000.8
20260504173120 25 281 17.7 41.8 0.00 0.00 0.00 31 1000.7
20260504172555 25 295 19.3 41.8 0.00 0.00 0.00 32 1000.7
20260504172101 25 291 14.5 33.8 0.00 0.00 0.00 32 1000.7
20260504171558 25 348 12.9 37.0 0.00 0.00 0.00 31 1000.5
20260504171056 25 298 16.1 37.0 0.00 0.00 0.00 31 1000.5
20260504170557 25 309 17.7 41.8 0.00 0.00 0.00 32 1000.5
20260504160105 25 286 11.3 29.0 0.00 0.00 0.00 33 1000.5
20260504151056 21 234 11.3 22.5 0.00 0.00 0.00 46 1001.0
20260504150559 21 265 11.3 22.5 0.00 0.00 0.00 46 1000.9
20260504141057 16 215 3.2 8.0 0.00 0.00 0.00 57 1001.4
20260504140557 16 0 3.2 8.0 0.00 0.00 0.00 57 1001.4
20260504140109 15 215 3.2 8.0 0.00 0.00 0.00 58 1001.6
20260504130559 11 0 1.6 4.8 0.00 0.00 0.00 67 1001.6
20260504110555 9 0 0.0 4.8 0.00 0.00 0.00 71 1001.8
20260504110118 9 0 0.0 4.8 0.00 0.00 0.00 71 1001.8
20260504100556 9 0 0.0 3.2 0.00 0.00 0.00 68 1002.4
20260504100103 9 0 0.0 4.8 0.00 0.00 0.00 68 1002.3
20260504090118 9 0 0.0 3.2 0.00 0.00 0.00 67 1003.1
20260504081558 10 230 1.6 6.4 0.00 0.00 0.00 67 1003.4
20260504081057 9 230 3.2 6.4 0.00 0.00 0.00 67 1003.7
20260504080556 9 230 0.0 6.4 0.00 0.00 0.00 67 1003.8
20260504060103 10 231 1.6 8.0 0.00 0.00 0.00 67 1005.6
20260504050557 12 0 0.0 1.6 0.00 0.00 0.00 59 1006.0
20260504045600 12 0 0.0 3.2 0.00 0.00 0.00 57 1006.2
20260504045057 12 230 1.6 3.2 0.00 0.00 0.00 55 1006.3
20260504044604 12 0 0.0 0.0 0.00 0.00 0.00 54 1006.3
20260504044057 12 0 0.0 0.0 0.00 0.00 0.00 53 1006.3
20260504043557 13 0 0.0 0.0 0.00 0.00 0.00 52 1006.3
20260504043057 13 0 0.0 0.0 0.00 0.00 0.00 52 1006.4
20260504042557 13 0 0.0 0.0 0.00 0.00 0.00 50 1006.5
20260504042056 13 0 0.0 0.0 0.00 0.00 0.00 50 1006.5
20260504041559 14 0 0.0 0.0 0.00 0.00 0.00 48 1006.5
20260504041056 14 0 0.0 1.6 0.00 0.00 0.00 46 1006.6
20260504040556 15 0 0.0 1.6 0.00 0.00 0.00 45 1006.5
20260504040106 15 0 0.0 1.6 0.00 0.00 0.00 44 1006.5
20260504035555 15 0 0.0 6.4 0.00 0.00 0.00 43 1006.6
20260504035056 15 0 0.0 6.4 0.00 0.00 0.00 43 1006.7
20260504034603 15 262 0.0 4.8 0.00 0.00 0.00 42 1006.7
20260504034057 15 0 0.0 4.8 0.00 0.00 0.00 41 1006.8
20260504033556 16 274 1.6 4.8 0.00 0.00 0.00 40 1006.9
20260504033114 16 274 1.6 4.8 0.00 0.00 0.00 40 1007.0
20260504032557 16 275 1.6 9.7 0.00 0.00 0.00 39 1007.2
20260504032056 16 275 1.6 9.7 0.00 0.00 0.00 38 1007.2
20260504031557 17 275 3.2 6.4 0.00 0.00 0.00 37 1007.3
20260504031055 17 280 1.6 6.4 0.00 0.00 0.00 36 1007.3
20260504030555 17 280 1.6 9.7 0.00 0.00 0.00 35 1007.3
20260504030056 17 280 3.2 9.7 0.00 0.00 0.00 35 1007.5
20260504025556 17 277 3.2 6.4 0.00 0.00 0.00 35 1007.4
20260504025056 17 288 3.2 6.4 0.00 0.00 0.00 35 1007.4
20260504024605 17 286 3.2 6.4 0.00 0.00 0.00 35 1007.5
20260504024056 18 288 3.2 9.7 0.00 0.00 0.00 35 1007.5
20260504023556 18 288 3.2 11.3 0.00 0.00 0.00 34 1007.5
20260504023056 18 283 3.2 11.3 0.00 0.00 0.00 34 1007.4
20260504022556 18 287 3.2 11.3 0.00 0.00 0.00 34 1007.4
20260504022056 18 285 4.8 11.3 0.00 0.00 0.00 33 1007.3
20260504021559 18 284 3.2 14.5 0.00 0.00 0.00 33 1007.4
20260504021056 18 282 6.4 14.5 0.00 0.00 0.00 32 1007.5
20260504020556 18 290 6.4 12.9 0.00 0.00 0.00 32 1007.4
20260504020100 19 274 4.8 14.5 0.00 0.00 0.00 32 1007.4
20260504015556 19 280 4.8 14.5 0.00 0.00 0.00 31 1007.5
20260504015058 19 275 6.4 14.5 0.00 0.00 0.00 30 1007.4
20260504014558 19 269 6.4 14.5 0.00 0.00 0.00 30 1007.1
20260504014058 19 267 6.4 14.5 0.00 0.00 0.00 31 1007.3
20260504013555 20 267 6.4 12.9 0.00 0.00 0.00 30 1007.3
20260504013057 20 269 8.0 12.9 0.00 0.00 0.00 30 1007.5
20260504012556 20 271 8.0 14.5 0.00 0.00 0.00 29 1007.4
20260504012056 20 280 8.0 14.5 0.00 0.00 0.00 29 1007.3
20260504011601 20 265 8.0 14.5 0.00 0.00 0.00 28 1007.4
20260504011056 21 275 8.0 14.5 0.00 0.00 0.00 27 1007.4
20260504010556 21 262 8.0 14.5 0.00 0.00 0.00 27 1007.4
20260504005556 21 256 4.8 14.5 0.00 0.00 0.00 26 1007.4
20260504005100 21 257 6.4 14.5 0.00 0.00 0.00 26 1007.4
20260504004556 22 287 8.0 14.5 0.00 0.00 0.00 26 1007.4
20260504004058 22 269 4.8 11.3 0.00 0.00 0.00 25 1007.5
20260504003557 22 269 4.8 11.3 0.00 0.00 0.00 25 1007.6
20260504003056 22 279 3.2 14.5 0.00 0.00 0.00 24 1007.5
20260504002556 22 282 4.8 14.5 0.00 0.00 0.00 24 1007.4
20260504002057 22 281 6.4 14.5 0.00 0.00 0.00 24 1007.5
20260504001614 23 334 3.2 12.9 0.00 0.00 0.00 25 1007.5
20260504001055 23 338 3.2 12.9 0.00 0.00 0.00 25 1007.4
20260504000555 23 315 6.4 11.3 0.00 0.00 0.00 25 1007.4
20260504000056 23 321 3.2 14.5 0.00 0.00 0.00 25 1007.6
20260503235555 23 320 6.4 16.1 0.00 0.00 0.00 25 1007.5
20260503235055 23 309 6.4 16.1 0.00 0.00 0.00 24 1007.7
20260503234557 23 306 4.8 16.1 0.00 0.00 0.00 24 1007.7
20260503234056 23 331 8.0 19.3 0.00 0.00 0.00 23 1007.7
20260503233557 23 5 6.4 19.3 0.00 0.00 0.00 24 1007.8
20260503233057 23 319 8.0 17.7 0.00 0.00 0.00 23 1007.7
20260503232600 23 306 6.4 17.7 0.00 0.00 0.00 23 1007.7
20260503232057 23 304 4.8 20.9 0.00 0.00 0.00 25 1007.8
20260503231558 23 269 8.0 20.9 0.00 0.00 0.00 24 1007.8
20260503231058 23 265 9.7 16.1 0.00 0.00 0.00 24 1007.7
20260503230558 23 279 6.4 17.7 0.00 0.00 0.00 24 1007.9
20260503230058 23 301 8.0 17.7 0.00 0.00 0.00 24 1007.8
20260503225556 23 304 11.3 19.3 0.00 0.00 0.00 24 1007.9
20260503225055 23 297 12.9 24.1 0.00 0.00 0.00 23 1007.8
20260503224557 23 305 12.9 24.1 0.00 0.00 0.00 23 1007.8
20260503224056 23 312 8.0 17.7 0.00 0.00 0.00 24 1007.9
20260503223557 23 271 8.0 17.7 0.00 0.00 0.00 24 1008.0
20260503223056 23 276 9.7 20.9 0.00 0.00 0.00 24 1008.1
20260503222559 23 15 11.3 20.9 0.00 0.00 0.00 24 1008.0
20260503222056 23 303 11.3 20.9 0.00 0.00 0.00 23 1008.1
20260503221556 23 300 8.0 14.5 0.00 0.00 0.00 23 1008.0
20260503221057 23 269 8.0 20.9 0.00 0.00 0.00 22 1008.1
20260503220554 23 284 9.7 20.9 0.00 0.00 0.00 22 1008.1
20260503220110 23 301 9.7 20.9 0.00 0.00 0.00 22 1008.2
20260503215555 23 284 6.4 20.9 0.00 0.00 0.00 23 1008.2
20260503215056 23 304 8.0 20.9 0.00 0.00 0.00 24 1008.2
20260503214554 23 298 8.0 22.5 0.00 0.00 0.00 24 1008.2
20260503214101 23 26 9.7 22.5 0.00 0.00 0.00 22 1008.3
20260503213601 23 304 6.4 20.9 0.00 0.00 0.00 23 1008.4
20260503213059 23 41 6.4 20.9 0.00 0.00 0.00 22 1008.4
20260503212558 23 27 8.0 25.7 0.00 0.00 0.00 22 1008.5
20260503212056 23 324 11.3 25.7 0.00 0.00 0.00 24 1008.5
20260503211607 23 284 9.7 25.7 0.00 0.00 0.00 23 1008.4
20260503211059 22 41 9.7 22.5 0.00 0.00 0.00 24 1008.4
20260503210557 23 31 9.7 22.5 0.00 0.00 0.00 24 1008.5
20260503210059 23 346 8.0 22.5 0.00 0.00 0.00 24 1008.5
20260503205556 23 325 9.7 20.9 0.00 0.00 0.00 24 1008.5
20260503205101 23 28 8.0 22.5 0.00 0.00 0.00 25 1008.5
20260503204606 23 22 4.8 22.5 0.00 0.00 0.00 25 1008.5
20260503204056 23 346 8.0 22.5 0.00 0.00 0.00 24 1008.6
20260503203556 23 352 9.7 25.7 0.00 0.00 0.00 25 1008.6
20260503203055 23 296 6.4 25.7 0.00 0.00 0.00 24 1008.6
20260503202558 23 22 14.5 25.7 0.00 0.00 0.00 23 1008.8
20260503202057 23 338 11.3 24.1 0.00 0.00 0.00 24 1008.6
20260503201557 23 28 6.4 24.1 0.00 0.00 0.00 26 1008.7
20260503201058 23 297 12.9 24.1 0.00 0.00 0.00 26 1008.7
20260503200557 23 332 8.0 27.4 0.00 0.00 0.00 25 1008.8
20260503200057 23 271 14.5 27.4 0.00 0.00 0.00 25 1008.8
20260503195555 23 315 12.9 25.7 0.00 0.00 0.00 25 1008.8
20260503195054 23 328 12.9 22.5 0.00 0.00 0.00 26 1008.8
20260503194559 23 319 6.4 27.4 0.00 0.00 0.00 26 1008.8
20260503194056 22 5 11.3 27.4 0.00 0.00 0.00 26 1008.9
20260503193558 22 337 14.5 27.4 0.00 0.00 0.00 27 1008.9
20260503193118 23 344 14.5 24.1 0.00 0.00 0.00 26 1008.9
20260503192556 23 282 12.9 27.4 0.00 0.00 0.00 26 1008.8
20260503192102 22 49 8.0 27.4 0.00 0.00 0.00 27 1008.8
20260503191601 22 345 12.9 27.4 0.00 0.00 0.00 27 1008.7
20260503191059 22 5 8.0 17.7 0.00 0.00 0.00 28 1008.7
20260503190556 22 299 8.0 19.3 0.00 0.00 0.00 29 1008.7
20260503190058 22 15 8.0 20.9 0.00 0.00 0.00 29 1008.9
20260503185556 22 355 8.0 24.1 0.00 0.00 0.00 29 1008.9
20260503185056 22 26 11.3 24.1 0.00 0.00 0.00 29 1009.0
20260503184558 22 311 11.3 24.1 0.00 0.00 0.00 30 1008.9
20260503184059 22 43 8.0 20.9 0.00 0.00 0.00 29 1008.8
20260503183556 22 360 11.3 20.9 0.00 0.00 0.00 28 1009.0
20260503183112 22 321 8.0 25.7 0.00 0.00 0.00 31 1008.9
20260503182601 22 337 12.9 29.0 0.00 0.00 0.00 29 1009.0
20260503182057 22 360 8.0 29.0 0.00 0.00 0.00 31 1009.2
20260503181624 22 26 11.3 22.5 0.00 0.00 0.00 30 1009.1
20260503181056 21 17 11.3 24.1 0.00 0.00 0.00 30 1009.1
20260503180554 21 19 4.8 24.1 0.00 0.00 0.00 30 1009.2
20260503180129 21 355 11.3 25.7 0.00 0.00 0.00 29 1009.2
20260503175559 21 17 11.3 25.7 0.00 0.00 0.00 28 1009.1
20260503175056 21 10 11.3 30.6 0.00 0.00 0.00 30 1009.3
20260503174601 21 355 12.9 30.6 0.00 0.00 0.00 30 1009.2